COSMOS 1589

Satellite information

Favourite Embed

Satellite Type and Status

PAYLOADIN ORBIT

Key statistics

Satellite COSMOS 1589 at a glance.

Uptime

15103

Days in orbit

Revolutions

≈ 12.4

Per day

Orbit

LEO

Low Earth Orbit

Inclination

82.6

Latest

Satellite identification and parameters

Extended collection of information and parameters for COSMOS 1589.

Object identification

Identified? True

Debris? False

Object name: COSMOS 1589

International designator: 1984-084A

Object number (NORAD): 15171

Object ID (CCSDS): 15171

Country: COMMONWEALTH OF INDEPENDENT STATES (CIS)

Current information (Y/N): Y

RCS size: LARGE

Orbital parameters

Period: 115.918 minutes

Inclination: 82.5976 deg

SMA: 7875.205 km

Apoapsis: 1502.644 km

Periapsis: 1491.497 km

RAAN: 269.5545 deg

Eccentricy: 0.00070771

Argument of periapsis: 75.8503 deg

Mean anomaly: 44.1183 deg

Mean motion: 12.42252687 rev/day

Mean motion (dot): 0.00000022 rev/day2

B* drag term: 0.000084387514 1/REarth

Two-line elements (TLE)

Creation date: Dec. 13, 2025, 5:47 p.m.

Reference frame: TEME

Reference center: EARTH

Epoch: Dec. 13, 2025, 7:45 a.m. UTC

TLE line 0: 0 COSMOS 1589

TLE line 1: 1 15171U 84084A 25347.32316740 .00000022 00000-0 84388-4 0 9995

TLE line 2: 2 15171 82.5976 269.5545 0007077 75.8503 44.1183 12.42252687874783

Live tracking on map

Real-time ground track for satellite COSMOS 1589.

In-orbit conjunctions

A list of the most updated potential collisions computed for object COSMOS 1589.

Target Orbit TCA Probability of collision Miss distance Type
ARIANE 44L+ DEB (SPELDA) MEO 2025-04-19 13:08:41 0.0001377023 758.0 (m) DEBRIS

Associated space launch

A satellite for the GEO-IK geodetic system

COSMOS 1589 was lifted into orbit during the mission ‘Tsiklon-3 | Geo-IK 5’, on board a Tsiklon-3 space rocket.

The launch took place on Aug. 8, 1984, 12:08 p.m. from 32/2.

For more information about the launch, click the button.

Launch to space Tsiklon-3 | Geo-IK 5
Tsiklon-3 | Geo-IK 5

Agency: N/A

Status: Launch Successful

Launch date: Aug. 8, 1984, 12:08 p.m. UTC

Rocket: Tsiklon-3

Launch pad: 32/2

Location: Plesetsk Cosmodrome, Russian Federation

...

Latest news about this satellite

There are no fresh news available about this satellite. Check back as we update our databases every day.


Newsletter sign-up

Weekly statistics, charts and insights to help you stay on top of the space industry.